Location: Bourg-d�Oueil
(42.8588°N, 0.4991°E)
Time: 02:58:38
(UTC+00:00)

Cosmos 1844 Rocket - Pass Details

Date: 16 June 2021
Orbit: 823 x 846 km, 71.0° (Epoch: 04 August)

Event Time Altitude Azimuth Distance (km) Brightness Sun altitude
Rises 20:35:44 0° 343° (NNW) 3,409 7.1 -8.9°
Reaches altitude 10° 20:38:32 10° 354° (N) 2,473 5.9 -9.3°
Maximum altitude 20:43:26 29° 54° (NE) 1,510 4.0 -9.9°
Enters shadow 20:48:07 11° 112° (ESE) 2,407 4.5 -10.5°
